{"data":{"norad_id":66469,"intl_designator":"2025-262P","name":"STARLINK-35451","alt_names":[],"object_type":"PAYLOAD","status":"ACTIVE","operator":null,"country":"US","launch_date":"2025-11-15","launch_site_code":"AFETR","launch_vehicle":null,"mission":null,"orbit_class":"UNKNOWN","rcs_meters":null,"size_class":null,"mass_kg":null,"dimensions":null,"purposes":["comms"],"wikipedia_slug":null,"has_3d_model":false,"image_url":null,"decayed_at":null,"tle_current":{"epoch":"2026-05-25T05:07:01.655040Z","epoch_age_seconds":53320,"freshness":"FRESH","line1":"1 66469U 25262P   26145.21321360  .00010439  00000+0  38817-3 0  9990","line2":"2 66469  42.9991 223.6638 0000812 268.3781  91.6978 15.27592693 30612","mean_motion":15.27592693,"eccentricity":8.12e-5,"inclination_deg":42.9991,"raan_deg":223.6638,"arg_perigee_deg":268.3781,"mean_anomaly_deg":91.6978,"bstar":0.00038817,"rev_number":3061,"period_min":94.265965436901,"perigee_km":482.45396366973,"apogee_km":483.56821411936,"semimajor_km":6861.1480888945,"source":"CELESTRAK","updated_at":"2026-05-25T13:38:21.216611Z"}}}